2019-200T00:55:46.601,   1,   5,   2,    30,   4,          0,     12.981,  47481.752,    33.896,    -3.288,     0.546,   311.656, 3, 2.400E+01,  1.50, 120,  1.231E-02,  1.214E-01, -9.999E+09, -9.999E+09, -9.999E+09, -9.999E+09, -9.999E+09, -9.999E+09, -9.999E+09, -9.999E+09, -9.999E+09, -9.999E+09, -9.999E+09, -9.999E+09, -9.999E+09, -9.999E+09, -9.999E+09, -9.999E+09, 255
2019-200T01:20:46.618,   1,   5,   2,    30,   4,          0,     12.981,  47481.752,    33.720,    -3.224,     0.545,   296.530, 3, 2.400E+01,  1.50, 120,  1.241E-02,  1.214E-01, -9.999E+09, -9.999E+09, -9.999E+09, -9.999E+09, -9.999E+09, -9.999E+09, -9.999E+09, -9.999E+09, -9.999E+09, -9.999E+09, -9.999E+09, -9.999E+09, -9.999E+09, -9.999E+09, -9.999E+09, -9.999E+09, 255
2019-200T01:23:46.621,   1,   5,   2,    30,   4,          0,     12.981,  47481.752,    33.699,    -3.216,     0.545,   294.715, 3, 2.400E+01,  1.50, 120,  1.395E-02,  1.214E-01, -9.999E+09, -9.999E+09, -9.999E+09, -9.999E+09, -9.999E+09, -9.999E+09, -9.999E+09, -9.999E+09, -9.999E+09, -9.999E+09, -9.999E+09, -9.999E+09, -9.999E+09, -9.999E+09, -9.999E+09, -9.999E+09, 255
2019-200T01:24:46.621,   1,   5,   2,    30,   4,          0,     12.981,  47481.752,    33.692,    -3.214,     0.545,   294.109, 3, 2.400E+01,  1.50, 120,  1.473E-02,  1.214E-01, -9.999E+09, -9.999E+09, -9.999E+09, -9.999E+09, -9.999E+09, -9.999E+09, -9.999E+09, -9.999E+09, -9.999E+09, -9.999E+09, -9.999E+09, -9.999E+09, -9.999E+09, -9.999E+09, -9.999E+09, -9.999E+09, 255
2019-200T01:26:16.622,   1,   5,   2,    30,   4,          0,     12.981,  47481.752,    33.681,    -3.210,     0.545,   293.202, 3, 2.400E+01,  1.50, 120,  1.751E-02,  1.214E-01, -9.999E+09, -9.999E+09, -9.999E+09, -9.999E+09, -9.999E+09, -9.999E+09, -9.999E+09, -9.999E+09, -9.999E+09, -9.999E+09, -9.999E+09, -9.999E+09, -9.999E+09, -9.999E+09, -9.999E+09, -9.999E+09, 255
2019-200T01:26:46.623,   1,   5,   2,    30,   4,          0,     12.981,  47481.752,    33.678,    -3.209,     0.545,   292.899, 3, 2.400E+01,  1.50, 120,  1.824E-02,  1.214E-01, -9.999E+09, -9.999E+09, -9.999E+09, -9.999E+09, -9.999E+09, -9.999E+09, -9.999E+09, -9.999E+09, -9.999E+09, -9.999E+09, -9.999E+09, -9.999E+09, -9.999E+09, -9.999E+09, -9.999E+09, -9.999E+09, 255
2019-200T01:27:16.623,   1,   5,   2,    30,   4,          0,     12.981,  47481.752,    33.674,    -3.207,     0.545,   292.597, 3, 2.400E+01,  1.50, 120,  2.051E-02,  1.214E-01, -9.999E+09, -9.999E+09, -9.999E+09, -9.999E+09, -9.999E+09, -9.999E+09, -9.999E+09, -9.999E+09, -9.999E+09, -9.999E+09, -9.999E+09, -9.999E+09, -9.999E+09, -9.999E+09, -9.999E+09, -9.999E+09, 255
2019-200T01:27:46.623,   1,   5,   2,    30,   4,          0,     12.981,  47481.752,    33.671,    -3.206,     0.545,   292.294, 3, 2.400E+01,  1.50, 120,  2.263E-02,  1.214E-01, -9.999E+09, -9.999E+09, -9.999E+09, -9.999E+09, -9.999E+09, -9.999E+09, -9.999E+09, -9.999E+09, -9.999E+09, -9.999E+09, -9.999E+09, -9.999E+09, -9.999E+09, -9.999E+09, -9.999E+09, -9.999E+09, 255
2019-200T01:28:16.624,   1,   5,   2,    30,   4,          0,     12.981,  47481.752,    33.667,    -3.205,     0.544,   291.992, 3, 2.400E+01,  1.50, 120,  1.968E-02,  1.214E-01, -9.999E+09, -9.999E+09, -9.999E+09, -9.999E+09, -9.999E+09, -9.999E+09, -9.999E+09, -9.999E+09, -9.999E+09, -9.999E+09, -9.999E+09, -9.999E+09, -9.999E+09, -9.999E+09, -9.999E+09, -9.999E+09, 255
2019-200T01:28:46.624,   1,   5,   2,    30,   4,          0,     12.981,  47481.752,    33.663,    -3.203,     0.544,   291.689, 3, 2.400E+01,  1.50, 120,  1.401E-02,  1.214E-01, -9.999E+09, -9.999E+09, -9.999E+09, -9.999E+09, -9.999E+09, -9.999E+09, -9.999E+09, -9.999E+09, -9.999E+09, -9.999E+09, -9.999E+09, -9.999E+09, -9.999E+09, -9.999E+09, -9.999E+09, -9.999E+09, 255
2019-200T01:29:16.625,   1,   5,   2,    30,   4,          0,     12.981,  47481.752,    33.660,    -3.202,     0.544,   291.387, 3, 2.400E+01,  1.50, 120,  1.993E-02,  1.214E-01, -9.999E+09, -9.999E+09, -9.999E+09, -9.999E+09, -9.999E+09, -9.999E+09, -9.999E+09, -9.999E+09, -9.999E+09, -9.999E+09, -9.999E+09, -9.999E+09, -9.999E+09, -9.999E+09, -9.999E+09, -9.999E+09, 255
2019-200T01:29:46.625,   1,   5,   2,    30,   4,          0,     12.981,  47481.752,    33.656,    -3.201,     0.544,   291.084, 3, 2.400E+01,  1.50, 120,  1.666E-02,  1.214E-01, -9.999E+09, -9.999E+09, -9.999E+09, -9.999E+09, -9.999E+09, -9.999E+09, -9.999E+09, -9.999E+09, -9.999E+09, -9.999E+09, -9.999E+09, -9.999E+09, -9.999E+09, -9.999E+09, -9.999E+09, -9.999E+09, 255
2019-200T01:30:16.625,   1,   5,   2,    30,   4,          0,     12.981,  47481.752,    33.653,    -3.200,     0.544,   290.782, 3, 2.400E+01,  1.50, 120,  2.046E-02,  1.214E-01, -9.999E+09, -9.999E+09, -9.999E+09, -9.999E+09, -9.999E+09, -9.999E+09, -9.999E+09, -9.999E+09, -9.999E+09, -9.999E+09, -9.999E+09, -9.999E+09, -9.999E+09, -9.999E+09, -9.999E+09, -9.999E+09, 255
2019-200T01:30:46.625,   1,   5,   2,    30,   4,          0,     12.981,  47481.752,    33.649,    -3.198,     0.544,   290.479, 3, 2.400E+01,  1.50, 120,  1.925E-02,  1.214E-01, -9.999E+09, -9.999E+09, -9.999E+09, -9.999E+09, -9.999E+09, -9.999E+09, -9.999E+09, -9.999E+09, -9.999E+09, -9.999E+09, -9.999E+09, -9.999E+09, -9.999E+09, -9.999E+09, -9.999E+09, -9.999E+09, 255
2019-200T01:31:16.626,   1,   5,   2,    30,   4,          0,     12.981,  47481.752,    33.646,    -3.197,     0.544,   290.177, 3, 2.400E+01,  1.50, 120,  2.685E-02,  1.214E-01, -9.999E+09, -9.999E+09, -9.999E+09, -9.999E+09, -9.999E+09, -9.999E+09, -9.999E+09, -9.999E+09, -9.999E+09, -9.999E+09, -9.999E+09, -9.999E+09, -9.999E+09, -9.999E+09, -9.999E+09, -9.999E+09, 255
2019-200T01:31:46.626,   1,   5,   2,    30,   4,          0,     12.981,  47481.752,    33.642,    -3.196,     0.544,   289.874, 3, 2.400E+01,  1.50, 120,  2.012E-02,  1.214E-01, -9.999E+09, -9.999E+09, -9.999E+09, -9.999E+09, -9.999E+09, -9.999E+09, -9.999E+09, -9.999E+09, -9.999E+09, -9.999E+09, -9.999E+09, -9.999E+09, -9.999E+09, -9.999E+09, -9.999E+09, -9.999E+09, 255
2019-200T01:32:16.627,   1,   5,   2,    30,   4,          0,     12.981,  47481.752,    33.639,    -3.194,     0.544,   289.572, 3, 2.400E+01,  1.50, 120,  4.213E-02,  1.214E-01, -9.999E+09, -9.999E+09, -9.999E+09, -9.999E+09, -9.999E+09, -9.999E+09, -9.999E+09, -9.999E+09, -9.999E+09, -9.999E+09, -9.999E+09, -9.999E+09, -9.999E+09, -9.999E+09, -9.999E+09, -9.999E+09, 255
2019-200T01:32:46.627,   1,   5,   2,    30,   4,          0,     12.981,  47481.752,    33.635,    -3.193,     0.544,   289.269, 3, 2.400E+01,  1.50, 120,  4.126E-02,  1.214E-01, -9.999E+09, -9.999E+09, -9.999E+09, -9.999E+09, -9.999E+09, -9.999E+09, -9.999E+09, -9.999E+09, -9.999E+09, -9.999E+09, -9.999E+09, -9.999E+09, -9.999E+09, -9.999E+09, -9.999E+09, -9.999E+09, 255
2019-200T01:33:16.627,   1,   5,   2,    30,   4,          0,     12.981,  47481.752,    33.632,    -3.192,     0.544,   288.966, 3, 2.400E+01,  1.50, 120,  4.773E-02,  1.214E-01, -9.999E+09, -9.999E+09, -9.999E+09, -9.999E+09, -9.999E+09, -9.999E+09, -9.999E+09, -9.999E+09, -9.999E+09, -9.999E+09, -9.999E+09, -9.999E+09, -9.999E+09, -9.999E+09, -9.999E+09, -9.999E+09, 255
2019-200T01:33:46.628,   1,   5,   2,    30,   4,          0,     12.981,  47481.752,    33.628,    -3.190,     0.544,   288.664, 3, 2.400E+01,  1.50, 120,  3.638E-02,  1.214E-01, -9.999E+09, -9.999E+09, -9.999E+09, -9.999E+09, -9.999E+09, -9.999E+09, -9.999E+09, -9.999E+09, -9.999E+09, -9.999E+09, -9.999E+09, -9.999E+09, -9.999E+09, -9.999E+09, -9.999E+09, -9.999E+09, 255
2019-200T01:34:16.628,   1,   5,   2,    30,   4,          0,     12.981,  47481.752,    33.625,    -3.189,     0.544,   288.361, 3, 2.400E+01,  1.50, 120,  4.539E-02,  1.214E-01, -9.999E+09, -9.999E+09, -9.999E+09, -9.999E+09, -9.999E+09, -9.999E+09, -9.999E+09, -9.999E+09, -9.999E+09, -9.999E+09, -9.999E+09, -9.999E+09, -9.999E+09, -9.999E+09, -9.999E+09, -9.999E+09, 255
2019-200T01:34:46.628,   1,   5,   2,    30,   4,          0,     12.981,  47481.752,    33.621,    -3.188,     0.544,   288.059, 3, 2.400E+01,  1.50, 120,  3.694E-02,  1.214E-01, -9.999E+09, -9.999E+09, -9.999E+09, -9.999E+09, -9.999E+09, -9.999E+09, -9.999E+09, -9.999E+09, -9.999E+09, -9.999E+09, -9.999E+09, -9.999E+09, -9.999E+09, -9.999E+09, -9.999E+09, -9.999E+09, 255
2019-200T01:35:16.629,   1,   5,   2,    30,   4,          0,     12.981,  47481.752,    33.618,    -3.187,     0.544,   287.756, 3, 2.400E+01,  1.50, 120,  2.938E-02,  1.214E-01, -9.999E+09, -9.999E+09, -9.999E+09, -9.999E+09, -9.999E+09, -9.999E+09, -9.999E+09, -9.999E+09, -9.999E+09, -9.999E+09, -9.999E+09, -9.999E+09, -9.999E+09, -9.999E+09, -9.999E+09, -9.999E+09, 255
2019-200T01:35:46.629,   1,   5,   2,    30,   4,          0,     12.981,  47481.752,    33.614,    -3.185,     0.544,   287.454, 3, 2.400E+01,  1.50, 120,  1.815E-02,  1.214E-01, -9.999E+09, -9.999E+09, -9.999E+09, -9.999E+09, -9.999E+09, -9.999E+09, -9.999E+09, -9.999E+09, -9.999E+09, -9.999E+09, -9.999E+09, -9.999E+09, -9.999E+09, -9.999E+09, -9.999E+09, -9.999E+09, 255
2019-200T01:36:16.629,   1,   5,   2,    30,   4,          0,     12.981,  47481.752,    33.611,    -3.184,     0.544,   287.151, 3, 2.400E+01,  1.50, 120,  3.146E-02,  1.214E-01, -9.999E+09, -9.999E+09, -9.999E+09, -9.999E+09, -9.999E+09, -9.999E+09, -9.999E+09, -9.999E+09, -9.999E+09, -9.999E+09, -9.999E+09, -9.999E+09, -9.999E+09, -9.999E+09, -9.999E+09, -9.999E+09, 255
2019-200T01:36:46.630,   1,   5,   2,    30,   4,          0,     12.981,  47481.752,    33.607,    -3.183,     0.544,   286.849, 3, 2.400E+01,  1.50, 120,  2.093E-02,  1.214E-01, -9.999E+09, -9.999E+09, -9.999E+09, -9.999E+09, -9.999E+09, -9.999E+09, -9.999E+09, -9.999E+09, -9.999E+09, -9.999E+09, -9.999E+09, -9.999E+09, -9.999E+09, -9.999E+09, -9.999E+09, -9.999E+09, 255
2019-200T01:37:16.630,   1,   5,   2,    30,   4,          0,     12.981,  47481.752,    33.603,    -3.181,     0.544,   286.546, 3, 2.400E+01,  1.50, 120,  3.332E-02,  1.214E-01, -9.999E+09, -9.999E+09, -9.999E+09, -9.999E+09, -9.999E+09, -9.999E+09, -9.999E+09, -9.999E+09, -9.999E+09, -9.999E+09, -9.999E+09, -9.999E+09, -9.999E+09, -9.999E+09, -9.999E+09, -9.999E+09, 255
2019-200T01:37:46.630,   1,   5,   2,    30,   4,          0,     12.981,  47481.752,    33.600,    -3.180,     0.544,   286.244, 3, 2.400E+01,  1.50, 120,  2.856E-02,  1.214E-01, -9.999E+09, -9.999E+09, -9.999E+09, -9.999E+09, -9.999E+09, -9.999E+09, -9.999E+09, -9.999E+09, -9.999E+09, -9.999E+09, -9.999E+09, -9.999E+09, -9.999E+09, -9.999E+09, -9.999E+09, -9.999E+09, 255
2019-200T01:38:16.631,   1,   5,   2,    30,   4,          0,     12.981,  47481.752,    33.596,    -3.179,     0.544,   285.941, 3, 2.400E+01,  1.50, 120,  2.568E-02,  1.214E-01, -9.999E+09, -9.999E+09, -9.999E+09, -9.999E+09, -9.999E+09, -9.999E+09, -9.999E+09, -9.999E+09, -9.999E+09, -9.999E+09, -9.999E+09, -9.999E+09, -9.999E+09, -9.999E+09, -9.999E+09, -9.999E+09, 255
2019-200T01:38:46.631,   1,   5,   2,    30,   4,          0,     12.981,  47481.752,    33.593,    -3.178,     0.544,   285.639, 3, 2.400E+01,  1.50, 120,  3.399E-02,  1.214E-01, -9.999E+09, -9.999E+09, -9.999E+09, -9.999E+09, -9.999E+09, -9.999E+09, -9.999E+09, -9.999E+09, -9.999E+09, -9.999E+09, -9.999E+09, -9.999E+09, -9.999E+09, -9.999E+09, -9.999E+09, -9.999E+09, 255
2019-200T01:39:16.632,   1,   5,   2,    30,   4,          0,     12.981,  47481.752,    33.589,    -3.176,     0.544,   285.336, 3, 2.400E+01,  1.50, 120,  5.000E-02,  1.214E-01, -9.999E+09, -9.999E+09, -9.999E+09, -9.999E+09, -9.999E+09, -9.999E+09, -9.999E+09, -9.999E+09, -9.999E+09, -9.999E+09, -9.999E+09, -9.999E+09, -9.999E+09, -9.999E+09, -9.999E+09, -9.999E+09, 255
2019-200T01:39:46.632,   1,   5,   2,    30,   4,          0,     12.981,  47481.752,    33.586,    -3.175,     0.544,   285.034, 3, 2.400E+01,  1.50, 120,  5.170E-02,  1.214E-01, -9.999E+09, -9.999E+09, -9.999E+09, -9.999E+09, -9.999E+09, -9.999E+09, -9.999E+09, -9.999E+09, -9.999E+09, -9.999E+09, -9.999E+09, -9.999E+09, -9.999E+09, -9.999E+09, -9.999E+09, -9.999E+09, 255
2019-200T01:40:16.632,   1,   5,   2,    30,   4,          0,     12.981,  47481.752,    33.582,    -3.174,     0.544,   284.731, 3, 2.400E+01,  1.50, 120,  3.920E-02,  1.214E-01, -9.999E+09, -9.999E+09, -9.999E+09, -9.999E+09, -9.999E+09, -9.999E+09, -9.999E+09, -9.999E+09, -9.999E+09, -9.999E+09, -9.999E+09, -9.999E+09, -9.999E+09, -9.999E+09, -9.999E+09, -9.999E+09, 255
2019-200T01:40:46.633,   1,   5,   2,    30,   4,          0,     12.981,  47481.752,    33.579,    -3.172,     0.544,   284.429, 3, 2.400E+01,  1.50, 120,  3.104E-02,  1.214E-01, -9.999E+09, -9.999E+09, -9.999E+09, -9.999E+09, -9.999E+09, -9.999E+09, -9.999E+09, -9.999E+09, -9.999E+09, -9.999E+09, -9.999E+09, -9.999E+09, -9.999E+09, -9.999E+09, -9.999E+09, -9.999E+09, 255
2019-200T01:41:16.633,   1,   5,   2,    30,   4,          0,     12.981,  47481.752,    33.575,    -3.171,     0.544,   284.126, 3, 2.400E+01,  1.50, 120,  2.271E-02,  1.214E-01, -9.999E+09, -9.999E+09, -9.999E+09, -9.999E+09, -9.999E+09, -9.999E+09, -9.999E+09, -9.999E+09, -9.999E+09, -9.999E+09, -9.999E+09, -9.999E+09, -9.999E+09, -9.999E+09, -9.999E+09, -9.999E+09, 255
2019-200T01:41:46.633,   1,   5,   2,    30,   4,          0,     12.981,  47481.752,    33.572,    -3.170,     0.544,   283.823, 3, 2.400E+01,  1.50, 120,  2.858E-02,  1.214E-01, -9.999E+09, -9.999E+09, -9.999E+09, -9.999E+09, -9.999E+09, -9.999E+09, -9.999E+09, -9.999E+09, -9.999E+09, -9.999E+09, -9.999E+09, -9.999E+09, -9.999E+09, -9.999E+09, -9.999E+09, -9.999E+09, 255
2019-200T01:42:16.634,   1,   5,   2,    30,   4,          0,     12.981,  47481.752,    33.568,    -3.168,     0.544,   283.521, 3, 2.400E+01,  1.50, 120,  3.839E-02,  1.214E-01, -9.999E+09, -9.999E+09, -9.999E+09, -9.999E+09, -9.999E+09, -9.999E+09, -9.999E+09, -9.999E+09, -9.999E+09, -9.999E+09, -9.999E+09, -9.999E+09, -9.999E+09, -9.999E+09, -9.999E+09, -9.999E+09, 255
2019-200T01:42:46.634,   1,   5,   2,    30,   4,          0,     12.981,  47481.752,    33.565,    -3.167,     0.544,   283.218, 3, 2.400E+01,  1.50, 120,  3.586E-02,  1.214E-01, -9.999E+09, -9.999E+09, -9.999E+09, -9.999E+09, -9.999E+09, -9.999E+09, -9.999E+09, -9.999E+09, -9.999E+09, -9.999E+09, -9.999E+09, -9.999E+09, -9.999E+09, -9.999E+09, -9.999E+09, -9.999E+09, 255
2019-200T01:43:16.634,   1,   5,   2,    30,   4,          0,     12.981,  47481.752,    33.561,    -3.166,     0.544,   282.916, 3, 2.400E+01,  1.50, 120,  3.200E-02,  1.214E-01, -9.999E+09, -9.999E+09, -9.999E+09, -9.999E+09, -9.999E+09, -9.999E+09, -9.999E+09, -9.999E+09, -9.999E+09, -9.999E+09, -9.999E+09, -9.999E+09, -9.999E+09, -9.999E+09, -9.999E+09, -9.999E+09, 255
2019-200T01:43:46.635,   1,   5,   2,    30,   4,          0,     12.981,  47481.752,    33.558,    -3.165,     0.544,   282.613, 3, 2.400E+01,  1.50, 120,  3.522E-02,  1.214E-01, -9.999E+09, -9.999E+09, -9.999E+09, -9.999E+09, -9.999E+09, -9.999E+09, -9.999E+09, -9.999E+09, -9.999E+09, -9.999E+09, -9.999E+09, -9.999E+09, -9.999E+09, -9.999E+09, -9.999E+09, -9.999E+09, 255
2019-200T01:44:16.635,   1,   5,   2,    30,   4,          0,     12.981,  47481.752,    33.554,    -3.163,     0.544,   282.311, 3, 2.400E+01,  1.50, 120,  3.475E-02,  1.214E-01, -9.999E+09, -9.999E+09, -9.999E+09, -9.999E+09, -9.999E+09, -9.999E+09, -9.999E+09, -9.999E+09, -9.999E+09, -9.999E+09, -9.999E+09, -9.999E+09, -9.999E+09, -9.999E+09, -9.999E+09, -9.999E+09, 255
2019-200T01:44:46.635,   1,   5,   2,    30,   4,          0,     12.981,  47481.752,    33.550,    -3.162,     0.544,   282.008, 3, 2.400E+01,  1.50, 120,  3.527E-02,  1.214E-01, -9.999E+09, -9.999E+09, -9.999E+09, -9.999E+09, -9.999E+09, -9.999E+09, -9.999E+09, -9.999E+09, -9.999E+09, -9.999E+09, -9.999E+09, -9.999E+09, -9.999E+09, -9.999E+09, -9.999E+09, -9.999E+09, 255
2019-200T01:45:16.636,   1,   5,   2,    30,   4,          0,     12.981,  47481.752,    33.547,    -3.161,     0.544,   281.706, 3, 2.400E+01,  1.50, 120,  3.992E-02,  1.214E-01, -9.999E+09, -9.999E+09, -9.999E+09, -9.999E+09, -9.999E+09, -9.999E+09, -9.999E+09, -9.999E+09, -9.999E+09, -9.999E+09, -9.999E+09, -9.999E+09, -9.999E+09, -9.999E+09, -9.999E+09, -9.999E+09, 255
2019-200T01:45:46.636,   1,   5,   2,    30,   4,          0,     12.981,  47481.752,    33.543,    -3.159,     0.544,   281.403, 3, 2.400E+01,  1.50, 120,  3.785E-02,  1.214E-01, -9.999E+09, -9.999E+09, -9.999E+09, -9.999E+09, -9.999E+09, -9.999E+09, -9.999E+09, -9.999E+09, -9.999E+09, -9.999E+09, -9.999E+09, -9.999E+09, -9.999E+09, -9.999E+09, -9.999E+09, -9.999E+09, 255
2019-200T01:46:16.636,   1,   5,   2,    30,   4,          0,     12.981,  47481.752,    33.540,    -3.158,     0.544,   281.101, 3, 2.400E+01,  1.50, 120,  4.045E-02,  1.214E-01, -9.999E+09, -9.999E+09, -9.999E+09, -9.999E+09, -9.999E+09, -9.999E+09, -9.999E+09, -9.999E+09, -9.999E+09, -9.999E+09, -9.999E+09, -9.999E+09, -9.999E+09, -9.999E+09, -9.999E+09, -9.999E+09, 255
2019-200T01:46:46.637,   1,   5,   2,    30,   4,          0,     12.981,  47481.752,    33.536,    -3.157,     0.544,   280.798, 3, 2.400E+01,  1.50, 120,  2.451E-02,  1.214E-01, -9.999E+09, -9.999E+09, -9.999E+09, -9.999E+09, -9.999E+09, -9.999E+09, -9.999E+09, -9.999E+09, -9.999E+09, -9.999E+09, -9.999E+09, -9.999E+09, -9.999E+09, -9.999E+09, -9.999E+09, -9.999E+09, 255
2019-200T01:47:16.637,   1,   5,   2,    30,   4,          0,     12.981,  47481.752,    33.533,    -3.155,     0.544,   280.496, 3, 2.400E+01,  1.50, 120,  2.594E-02,  1.214E-01, -9.999E+09, -9.999E+09, -9.999E+09, -9.999E+09, -9.999E+09, -9.999E+09, -9.999E+09, -9.999E+09, -9.999E+09, -9.999E+09, -9.999E+09, -9.999E+09, -9.999E+09, -9.999E+09, -9.999E+09, -9.999E+09, 255
2019-200T01:47:46.637,   1,   5,   2,    30,   4,          0,     12.981,  47481.752,    33.529,    -3.154,     0.544,   280.193, 3, 2.400E+01,  1.50, 120,  2.600E-02,  1.214E-01, -9.999E+09, -9.999E+09, -9.999E+09, -9.999E+09, -9.999E+09, -9.999E+09, -9.999E+09, -9.999E+09, -9.999E+09, -9.999E+09, -9.999E+09, -9.999E+09, -9.999E+09, -9.999E+09, -9.999E+09, -9.999E+09, 255
2019-200T01:48:16.638,   1,   5,   2,    30,   4,          0,     12.981,  47481.752,    33.526,    -3.153,     0.544,   279.891, 3, 2.400E+01,  1.50, 120,  2.041E-02,  1.214E-01, -9.999E+09, -9.999E+09, -9.999E+09, -9.999E+09, -9.999E+09, -9.999E+09, -9.999E+09, -9.999E+09, -9.999E+09, -9.999E+09, -9.999E+09, -9.999E+09, -9.999E+09, -9.999E+09, -9.999E+09, -9.999E+09, 255
2019-200T01:48:46.638,   1,   5,   2,    30,   4,          0,     12.981,  47481.752,    33.522,    -3.152,     0.544,   279.588, 3, 2.400E+01,  1.50, 120,  2.605E-02,  1.214E-01, -9.999E+09, -9.999E+09, -9.999E+09, -9.999E+09, -9.999E+09, -9.999E+09, -9.999E+09, -9.999E+09, -9.999E+09, -9.999E+09, -9.999E+09, -9.999E+09, -9.999E+09, -9.999E+09, -9.999E+09, -9.999E+09, 255
2019-200T01:49:16.638,   1,   5,   2,    30,   4,          0,     12.981,  47481.752,    33.519,    -3.150,     0.544,   279.286, 3, 2.400E+01,  1.50, 120,  1.798E-02,  1.214E-01, -9.999E+09, -9.999E+09, -9.999E+09, -9.999E+09, -9.999E+09, -9.999E+09, -9.999E+09, -9.999E+09, -9.999E+09, -9.999E+09, -9.999E+09, -9.999E+09, -9.999E+09, -9.999E+09, -9.999E+09, -9.999E+09, 255
2019-200T01:49:46.639,   1,   5,   2,    30,   4,          0,     12.981,  47481.752,    33.515,    -3.149,     0.544,   278.983, 3, 2.400E+01,  1.50, 120,  1.793E-02,  1.214E-01, -9.999E+09, -9.999E+09, -9.999E+09, -9.999E+09, -9.999E+09, -9.999E+09, -9.999E+09, -9.999E+09, -9.999E+09, -9.999E+09, -9.999E+09, -9.999E+09, -9.999E+09, -9.999E+09, -9.999E+09, -9.999E+09, 255
2019-200T01:50:16.639,   1,   5,   2,    30,   4,          0,     12.981,  47481.752,    33.512,    -3.148,     0.544,   278.681, 3, 2.400E+01,  1.50, 120,  2.366E-02,  1.214E-01, -9.999E+09, -9.999E+09, -9.999E+09, -9.999E+09, -9.999E+09, -9.999E+09, -9.999E+09, -9.999E+09, -9.999E+09, -9.999E+09, -9.999E+09, -9.999E+09, -9.999E+09, -9.999E+09, -9.999E+09, -9.999E+09, 255
2019-200T01:50:46.640,   1,   5,   2,    30,   4,          0,     12.981,  47481.752,    33.508,    -3.146,     0.544,   278.378, 3, 2.400E+01,  1.50, 120,  1.952E-02,  1.214E-01, -9.999E+09, -9.999E+09, -9.999E+09, -9.999E+09, -9.999E+09, -9.999E+09, -9.999E+09, -9.999E+09, -9.999E+09, -9.999E+09, -9.999E+09, -9.999E+09, -9.999E+09, -9.999E+09, -9.999E+09, -9.999E+09, 255
2019-200T01:51:16.640,   1,   5,   2,    30,   4,          0,     12.981,  47481.752,    33.504,    -3.145,     0.544,   278.075, 3, 2.400E+01,  1.50, 120,  1.740E-02,  1.214E-01, -9.999E+09, -9.999E+09, -9.999E+09, -9.999E+09, -9.999E+09, -9.999E+09, -9.999E+09, -9.999E+09, -9.999E+09, -9.999E+09, -9.999E+09, -9.999E+09, -9.999E+09, -9.999E+09, -9.999E+09, -9.999E+09, 255
2019-200T01:51:46.640,   1,   5,   2,    30,   4,          0,     12.981,  47481.752,    33.501,    -3.144,     0.544,   277.773, 3, 2.400E+01,  1.50, 120,  2.688E-02,  1.214E-01, -9.999E+09, -9.999E+09, -9.999E+09, -9.999E+09, -9.999E+09, -9.999E+09, -9.999E+09, -9.999E+09, -9.999E+09, -9.999E+09, -9.999E+09, -9.999E+09, -9.999E+09, -9.999E+09, -9.999E+09, -9.999E+09, 255
2019-200T01:52:16.641,   1,   5,   2,    30,   4,          0,     12.981,  47481.752,    33.497,    -3.142,     0.544,   277.470, 3, 2.400E+01,  1.50, 120,  2.469E-02,  1.214E-01, -9.999E+09, -9.999E+09, -9.999E+09, -9.999E+09, -9.999E+09, -9.999E+09, -9.999E+09, -9.999E+09, -9.999E+09, -9.999E+09, -9.999E+09, -9.999E+09, -9.999E+09, -9.999E+09, -9.999E+09, -9.999E+09, 255
2019-200T01:52:46.641,   1,   5,   2,    30,   4,          0,     12.981,  47481.752,    33.494,    -3.141,     0.544,   277.168, 3, 2.400E+01,  1.50, 120,  3.107E-02,  1.214E-01, -9.999E+09, -9.999E+09, -9.999E+09, -9.999E+09, -9.999E+09, -9.999E+09, -9.999E+09, -9.999E+09, -9.999E+09, -9.999E+09, -9.999E+09, -9.999E+09, -9.999E+09, -9.999E+09, -9.999E+09, -9.999E+09, 255
2019-200T01:53:16.641,   1,   5,   2,    30,   4,          0,     12.981,  47481.752,    33.490,    -3.140,     0.544,   276.865, 3, 2.400E+01,  1.50, 120,  3.226E-02,  1.214E-01, -9.999E+09, -9.999E+09, -9.999E+09, -9.999E+09, -9.999E+09, -9.999E+09, -9.999E+09, -9.999E+09, -9.999E+09, -9.999E+09, -9.999E+09, -9.999E+09, -9.999E+09, -9.999E+09, -9.999E+09, -9.999E+09, 255
2019-200T01:53:46.642,   1,   5,   2,    30,   4,          0,     12.981,  47481.752,    33.487,    -3.138,     0.544,   276.563, 3, 2.400E+01,  1.50, 120,  3.494E-02,  1.214E-01, -9.999E+09, -9.999E+09, -9.999E+09, -9.999E+09, -9.999E+09, -9.999E+09, -9.999E+09, -9.999E+09, -9.999E+09, -9.999E+09, -9.999E+09, -9.999E+09, -9.999E+09, -9.999E+09, -9.999E+09, -9.999E+09, 255
2019-200T01:54:16.642,   1,   5,   2,    30,   4,          0,     12.981,  47481.752,    33.483,    -3.137,     0.544,   276.260, 3, 2.400E+01,  1.50, 120,  3.684E-02,  1.214E-01, -9.999E+09, -9.999E+09, -9.999E+09, -9.999E+09, -9.999E+09, -9.999E+09, -9.999E+09, -9.999E+09, -9.999E+09, -9.999E+09, -9.999E+09, -9.999E+09, -9.999E+09, -9.999E+09, -9.999E+09, -9.999E+09, 255
2019-200T01:54:46.642,   1,   5,   2,    30,   4,          0,     12.981,  47481.752,    33.480,    -3.136,     0.544,   275.958, 3, 2.400E+01,  1.50, 120,  4.178E-02,  1.214E-01, -9.999E+09, -9.999E+09, -9.999E+09, -9.999E+09, -9.999E+09, -9.999E+09, -9.999E+09, -9.999E+09, -9.999E+09, -9.999E+09, -9.999E+09, -9.999E+09, -9.999E+09, -9.999E+09, -9.999E+09, -9.999E+09, 255
2019-200T01:55:16.643,   1,   5,   2,    30,   4,          0,     12.981,  47481.752,    33.476,    -3.135,     0.544,   275.655, 3, 2.400E+01,  1.50, 120,  2.118E-02,  1.214E-01, -9.999E+09, -9.999E+09, -9.999E+09, -9.999E+09, -9.999E+09, -9.999E+09, -9.999E+09, -9.999E+09, -9.999E+09, -9.999E+09, -9.999E+09, -9.999E+09, -9.999E+09, -9.999E+09, -9.999E+09, -9.999E+09, 255